[[{"header":{"parameterUnit":"m.s-1","parameterCategory":2,"la1":30.2991,"la2":30.254,"lo1":-89.0895,"lo2":-89.0444,"dy":0.0017,"dx":0.0017,"nx":28,"ny":28,"refTime":"2023-11-06T09:00:00:Z","depth":"0","parameterNumber":2,"parameterNumberName":"U-component_of_CURRENTS"},"data":[0,0,0,0,0,0,0,0,0,0,0,0,0,0,0,0,0,0,0,0,0,0,0,0,0,0,0,0,0,0,0,0,0,0,0,0,0,0,0,0,0,0,0,0,0,0,0,0,0,0,0,0,0,0,0,0,0,0,0.112,0.1121,0,0.1148,0.1148,0.1148,0.1134,0.1133,0.1132,0.1131,0.1171,0.1173,0.1175,0,0,0,0,0,0,0,0,0,0,0,0,0,0.1098,0.1098,0.112,0.1121,0.1121,0.1148,0.1148,0.1148,0.1134,0.1133,0.1132,0.1131,0.1171,0.1173,0.1175,0,0,0,0,0,0,0,0,0,0,0,0,0,0.1115,0.1098,0.112,0.1117,0.1117,0.1147,0.1148,0.1148,0.1134,0.1133,0.1132,0.1131,0.117,0.1172,0.1175,0.1215,0,0,0.1183,0.1184,0,0,0,0,0,0,0,0,0.1114,0.1116,0.1117,0.1117,0.1117,0.1136,0.1154,0.1171,0.1134,0.1128,0.1131,0.113,0.1161,0.1164,0.1172,0.1217,0.1218,0.1183,0.1185,0.1186,0.1187,0,0,0,0,0,0,0,0.1113,0.1115,0.1132,0.1117,0.1117,0.1128,0.1129,0.1158,0.1151,0.1128,0.1127,0.113,0.1161,0.117,0.1173,0.1219,0.1183,0.1186,0.1187,0.1188,0.1376,0.1379,0,0,0,0,0,0,0.1108,0.1113,0.1131,0.1132,0.1112,0.1129,0.113,0.1131,0.1151,0.1152,0.1131,0.1129,0.1166,0.117,0.1175,0.1302,0.1186,0.1189,0.119,0.1373,0.1377,0.138,0,0,0,0,0,0,0.1107,0.1109,0.113,0.1123,0.1126,0.113,0.1132,0.1132,0.115,0.1152,0.1154,0.1149,0.1165,0.1171,0.1237,0.13,0.119,0.1192,0.1369,0.1374,0.1378,0.1506,0,0,0,0,0,0,0.1106,0.1108,0.1123,0.1123,0.1127,0.1179,0.1133,0.1134,0.1152,0.1151,0.1169,0.117,0.1165,0.1234,0.124,0.1302,0.1194,0.1364,0.1371,0.1377,0.1497,0.1515,0.1529,0,0,0,0,0,0.1105,0.1144,0.1124,0.1127,0.1142,0.1182,0.1187,0.1184,0.1155,0.119,0.1203,0.117,0.1278,0.1239,0.1246,0.1309,0.1361,0.1369,0.1376,0.149,0.1511,0.1529,0,0,0,0,0,0,0.1169,0.1145,0.1124,0.1159,0.1177,0.118,0.1217,0.1197,0.1232,0.1231,0.1216,0.1222,0.1309,0.1293,0.125,0.1384,0.1314,0.1323,0.1398,0.1418,0.1434,0.1457,0.1197,0,0,0,0,0,0.118,0.1192,0.1181,0.1219,0.1225,0.1217,0.1234,0.1229,0.1249,0.1262,0.1271,0.1294,0.1346,0.1366,0.1406,0.1474,0.1492,0.152,0.1536,0.1549,0.1575,0.1664,0.1691,0.1405,0.1405,0.1405,0,0,0.1219,0.1209,0.1219,0.1232,0.1242,0.1278,0.1227,0.1268,0.1308,0.1264,0.1338,0.1358,0.138,0.1469,0.1504,0.146,0.1643,0.1559,0.157,0.1589,0.1675,0.1703,0.1728,0.141,0.1409,0.1409,0,0,0.13,0.1291,0.1318,0.1333,0.1346,0.1348,0.136,0.137,0.1388,0.1453,0.1444,0.151,0.1557,0.1604,0.1627,0.1757,0.1733,0.1755,0.1848,0.1935,0.1959,0.1981,0.2048,0.2074,0.1753,0.1753,0.1754,0,0.1344,0.1361,0.1345,0.1377,0.1394,0.138,0.1421,0.1456,0.1491,0.1519,0.1497,0.1615,0.1634,0.1752,0.1803,0.1797,0.1827,0.1769,0.1956,0.1978,0.1998,0.2061,0.2089,0.176,0.176,0.1759,0.1758,0,0.1425,0.1445,0.1477,0.1494,0.1528,0.1568,0.159,0.1635,0.1641,0.1663,0.1773,0.1815,0.1873,0.1902,0.1896,0.2047,0.2018,0.1973,0.1905,0.2034,0.2093,0.2119,0.177,0.1768,0.1766,0.1764,0,0,0.148,0.1516,0.1523,0.1531,0.1577,0.1604,0.1697,0.1759,0.1804,0.1873,0.1946,0.2068,0.2067,0.2098,0.2103,0.2189,0.2363,0.2146,0.2147,0.221,0.2551,0.2579,0.2609,0.2344,0.2349,0.2353,0.2538,0,0.1533,0.1587,0.1604,0.1675,0.1695,0.1722,0.1801,0.1866,0.1915,0.1994,0.2071,0.215,0.2147,0.2173,0.2273,0.233,0.2437,0.2317,0.242,0.2423,0.243,0.2643,0.2678,0.2851,0.2563,0.2567,0.257,0,0.1573,0.16,0.1654,0.171,0.1726,0.1774,0.1857,0.1929,0.2051,0.2091,0.2195,0.2238,0.2394,0.2351,0.2565,0.2482,0.2548,0.2596,0.2602,0.2605,0.2503,0.2675,0.2909,0.2878,0.261,0.2607,0.2604,0,0.155,0.1625,0.1654,0.1674,0.1752,0.1787,0.184,0.1949,0.2005,0.2148,0.2196,0.2369,0.2434,0.2576,0.2686,0.2634,0.2904,0.2824,0.2926,0.2925,0.2968,0.2964,0.3186,0.3012,0.3012,0.3011,0.3011,0,0.1557,0.158,0.1635,0.1646,0.1693,0.1762,0.1829,0.1907,0.2023,0.2109,0.2229,0.2322,0.2496,0.2649,0.2749,0.2943,0.296,0.3015,0.301,0.3013,0.3011,0.2989,0.2914,0.3018,0.3016,0.3015,0.3014,0,0.1501,0.1543,0.1569,0.1645,0.1668,0.1693,0.1788,0.1845,0.196,0.2074,0.2125,0.2315,0.2537,0.2714,0.2943,0.3011,0.3149,0.3242,0.3232,0.3226,0.3275,0.3203,0.3199,0.3153,0.3407,0.3409,0.3411,0,0.1468,0.1474,0.1534,0.1545,0.1567,0.1619,0.1663,0.179,0.1858,0.2069,0.2125,0.2366,0.2542,0.2898,0.313,0.3382,0.3246,0.3497,0.3424,0.3363,0.3279,0.3023,0.2964,0.3529,0.3532,0.3534,0.3536,0,0.1399,0.1414,0.1433,0.1461,0.149,0.1538,0.1614,0.166,0.1833,0.1947,0.2134,0.2296,0.2691,0.2989,0.3318,0.347,0.3383,0.3548,0.3513,0.3457,0.3168,0.3091,0.3285,0.3556,0.3554,0.3553,0.3552,0.3551,0.1328,0.1322,0.1348,0.1368,0.1405,0.1452,0.1485,0.16,0.1714,0.1907,0.2079,0.2321,0.2782,0.3282,0.3444,0.3747,0.3533,0.372,0.3659,0.3417,0.3327,0.3565,0.3797,0.3796,0.3796,0.3795,0.3795,0,0.1236,0.1247,0.1263,0.1291,0.1303,0.1358,0.145,0.1501,0.1624,0.1852,0.2033,0.2488,0.2914,0.3325,0.3817,0.3849,0.3701,0.3793,0.348,0.3435,0.3736,0.3701,0.3889,0.3889,0.3889,0.3889,0.3889,0.3889,0.1186,0.1167,0.1186,0.1179,0.1205,0.1231,0.1273,0.1383,0.1541,0.1812,0.2061,0.2272,0.2804,0.3464,0.3838,0.3847,0.3621,0.3504,0.3401,0.3675,0.3662,0.3649,0.3605,0.3769,0.3769,0.3038,0.3033,0.3029]},{"header":{"parameterUnit":"m.s-1","parameterCategory":2,"la1":30.2991,"la2":30.254,"lo1":-89.0895,"lo2":-89.0444,"dy":0.0017,"dx":0.0017,"nx":28,"ny":28,"refTime":"2023-11-06T09:00:00:Z","depth":"0","parameterNumber":3,"parameterNumberName":"V-component_of_CURRENTS"},"data":[0,0,0,0,0,0,0,0,0,0,0,0,0,0,0,0,0,0,0,0,0,0,0,0,0,0,0,0,0,0,0,0,0,0,0,0,0,0,0,0,0,0,0,0,0,0,0,0,0,0,0,0,0,0,0,0,0,0,0.0225,0.0226,0,0.0265,0.0266,0.0266,0.0227,0.0225,0.0224,0.0222,0.0183,0.0184,0.0184,0,0,0,0,0,0,0,0,0,0,0,0,0,0.0147,0.0149,0.0225,0.0226,0.0226,0.0265,0.0266,0.0266,0.0227,0.0225,0.0223,0.0222,0.0183,0.0184,0.0184,0,0,0,0,0,0,0,0,0,0,0,0,0,0.0184,0.0149,0.0225,0.0211,0.021,0.0265,0.0266,0.0266,0.0228,0.0225,0.0223,0.0221,0.0183,0.0184,0.0184,0.0236,0,0,0.0186,0.0187,0,0,0,0,0,0,0,0,0.0182,0.0187,0.0213,0.0212,0.0211,0.0238,0.0224,0.0252,0.0228,0.0221,0.0222,0.0219,0.0196,0.0195,0.021,0.0234,0.0232,0.0186,0.0187,0.0187,0.0187,0,0,0,0,0,0,0,0.0179,0.0185,0.0241,0.0213,0.0212,0.0214,0.0216,0.023,0.022,0.0222,0.0219,0.0224,0.0195,0.0209,0.0208,0.0232,0.0186,0.0187,0.0187,0.0188,0.0246,0.0247,0,0,0,0,0,0,0.0175,0.0183,0.024,0.0243,0.019,0.0217,0.022,0.0232,0.0222,0.0219,0.0226,0.0222,0.0209,0.0208,0.0207,0.0255,0.0187,0.0188,0.0188,0.0245,0.0246,0.0248,0,0,0,0,0,0,0.0173,0.018,0.0238,0.0212,0.022,0.022,0.0235,0.0234,0.0247,0.0225,0.022,0.0238,0.0208,0.0206,0.0224,0.0253,0.0188,0.0189,0.0244,0.0245,0.0247,0.0359,0,0,0,0,0,0,0.0171,0.018,0.0197,0.0213,0.0221,0.0288,0.0238,0.0237,0.0253,0.0248,0.0235,0.0229,0.0206,0.0223,0.0224,0.0253,0.0189,0.0242,0.0244,0.0246,0.0354,0.0364,0.0373,0,0,0,0,0,0.0169,0.021,0.0198,0.0205,0.0242,0.029,0.0296,0.0287,0.0256,0.0285,0.0263,0.0229,0.0236,0.0226,0.0227,0.0256,0.0241,0.0244,0.0246,0.035,0.0362,0.0373,0,0,0,0,0,0,0.0189,0.021,0.0198,0.0243,0.0268,0.0283,0.0313,0.0299,0.0309,0.0298,0.026,0.0255,0.0276,0.0254,0.0243,0.0275,0.0228,0.0231,0.0306,0.0318,0.0327,0.0334,0.019,0,0,0,0,0,0.0201,0.0233,0.0251,0.0288,0.0304,0.0308,0.0326,0.0323,0.0328,0.033,0.0317,0.0298,0.0293,0.0294,0.029,0.0325,0.0281,0.0337,0.0347,0.0356,0.036,0.032,0.0327,0.0256,0.0256,0.0256,0,0,0.0217,0.0234,0.0251,0.0294,0.0311,0.0356,0.0314,0.0356,0.0385,0.0326,0.0363,0.0339,0.0309,0.0338,0.0345,0.0322,0.0354,0.0359,0.0367,0.0366,0.0323,0.033,0.0336,0.0258,0.0258,0.0257,0,0,0.0272,0.0285,0.033,0.036,0.0394,0.0403,0.0416,0.044,0.0444,0.0483,0.0433,0.043,0.0438,0.042,0.0409,0.0474,0.0407,0.0464,0.0526,0.0488,0.0493,0.0497,0.0459,0.0459,0.047,0.047,0.0471,0,0.0286,0.0346,0.0353,0.0406,0.0435,0.0426,0.048,0.0499,0.0522,0.0529,0.0507,0.0501,0.0478,0.0492,0.0508,0.0498,0.0458,0.0487,0.0501,0.0504,0.0506,0.0466,0.0465,0.0476,0.0475,0.0475,0.0474,0,0.0374,0.0422,0.0458,0.0513,0.0547,0.0601,0.0618,0.0647,0.0641,0.0644,0.0662,0.0635,0.062,0.0616,0.0585,0.0592,0.0552,0.0518,0.0473,0.052,0.0475,0.0471,0.0484,0.0482,0.0481,0.0479,0,0,0.0409,0.0498,0.051,0.0552,0.0607,0.0648,0.0699,0.0743,0.0765,0.0778,0.0801,0.0794,0.0756,0.074,0.0695,0.0669,0.0656,0.0606,0.0601,0.0573,0.0566,0.0531,0.0522,0.0617,0.0616,0.0616,0.0531,0,0.0474,0.0586,0.0607,0.0708,0.0774,0.0777,0.0822,0.0853,0.0863,0.0886,0.0854,0.0858,0.0809,0.0796,0.0766,0.0679,0.0649,0.0682,0.052,0.0515,0.0482,0.0518,0.0584,0.0512,0.0527,0.0526,0.0526,0,0.0562,0.0627,0.073,0.0812,0.0835,0.088,0.0937,0.0975,0.0993,0.0994,0.0988,0.0951,0.0925,0.0867,0.0758,0.0776,0.0682,0.0614,0.0609,0.0533,0.0473,0.0464,0.0504,0.0387,0.0519,0.0519,0.052,0,0.0606,0.0716,0.0795,0.0829,0.0912,0.0943,0.0977,0.101,0.1034,0.1053,0.1062,0.1024,0.0992,0.0892,0.0758,0.075,0.0624,0.059,0.0473,0.0469,0.0472,0.0468,0.0383,0.0507,0.0507,0.0508,0.0508,0,0.0678,0.0746,0.0823,0.0872,0.0952,0.0992,0.1052,0.1078,0.1104,0.1132,0.1109,0.1112,0.099,0.0907,0.0784,0.0623,0.0639,0.049,0.0448,0.0513,0.0514,0.0367,0.0264,0.0504,0.0505,0.0506,0.0506,0,0.0713,0.0765,0.0865,0.0954,0.0978,0.1034,0.109,0.113,0.1152,0.1185,0.119,0.1162,0.1065,0.0937,0.0767,0.0646,0.0419,0.0436,0.0523,0.0492,0.0276,0.0176,0.0018,-0.0103,0.0301,0.0299,0.0298,0,0.0736,0.0797,0.0907,0.095,0.0987,0.106,0.1102,0.1147,0.1184,0.1212,0.1229,0.1166,0.1139,0.0903,0.0704,0.0503,0.036,0.0392,0.0388,0.0278,0.0135,0.0091,-0.0003,0.0438,0.0439,0.0439,0.0439,0,0.0782,0.0817,0.089,0.0972,0.1031,0.1102,0.1167,0.1203,0.1247,0.1281,0.1308,0.1297,0.111,0.0971,0.0701,0.0545,0.0301,0.0384,0.0255,0.0223,0.0184,0.0045,0.0472,0.044,0.044,0.044,0.0439,0.0439,0.0798,0.0852,0.093,0.0998,0.1064,0.1138,0.119,0.1255,0.1319,0.1388,0.138,0.1425,0.1256,0.0923,0.0656,0.0311,0.0245,0.0223,0.0108,0.0072,-0.0033,0.0389,0.0313,0.0312,0.0311,0.0311,0.031,0,0.0829,0.0879,0.0946,0.104,0.1097,0.1133,0.1225,0.128,0.1357,0.1464,0.1514,0.1582,0.1284,0.0975,0.0544,0.0177,0.0012,-0.004,-0.0066,-0.016,0.0228,0.0248,0.0173,0.0173,0.0173,0.0173,0.0173,0.0174,0.0853,0.0918,0.0949,0.1039,0.1099,0.1182,0.1236,0.1327,0.1426,0.1618,0.177,0.1869,0.1834,0.09,0.0244,0.0003,-0.0313,-0.0377,-0.0598,-0.0284,-0.0267,-0.025,-0.0251,-0.0429,-0.043,-0.0882,-0.0886,-0.089]}],[{"header":{"parameterUnit":"m.s-1","parameterCategory":2,"la1":30.2991,"la2":30.254,"lo1":-89.0895,"lo2":-89.0444,"dy":0.0017,"dx":0.0017,"nx":28,"ny":28,"refTime":"2023-11-06T09:00:00:Z","depth":"2","parameterNumber":2,"parameterNumberName":"U-component_of_CURRENTS"},"data":[0,0,0,0,0,0,0,0,0,0,0,0,0,0,0,0,0,0,0,0,0,0,0,0,0,0,0,0,0,0,0,0,0,0,0,0,0,0,0,0,0,0,0,0,0,0,0,0,0,0,0,0,0,0,0,0,0,0,0.1124,0.1125,0,0.119,0.1191,0.1191,0.1226,0.1227,0.1227,0.1227,0.1251,0.1252,0.1252,0,0,0,0,0,0,0,0,0,0,0,0,0,0.103,0.1032,0.1124,0.1125,0.1126,0.119,0.1191,0.1192,0.1226,0.1227,0.1227,0.1227,0.1251,0.1252,0.1252,0,0,0,0,0,0,0,0,0,0,0,0,0,0.108,0.1032,0.1124,0.1152,0.1155,0.119,0.1191,0.1192,0.1226,0.1227,0.1227,0.1227,0.1251,0.1252,0.1253,0.1254,0,0,0.1255,0.1255,0,0,0,0,0,0,0,0,0.1077,0.1084,0.1147,0.115,0.1153,0.1201,0.1167,0.1211,0.1226,0.1199,0.1227,0.1227,0.1231,0.1233,0.1245,0.1255,0.1256,0.1255,0.1256,0.1256,0.1256,0,0,0,0,0,0,0,0.1074,0.1081,0.115,0.1148,0.1152,0.1161,0.1168,0.1175,0.1212,0.1201,0.1204,0.1212,0.1232,0.1244,0.1246,0.1256,0.1255,0.1256,0.1256,0.1257,0.1329,0.133,0,0,0,0,0,0,0.1067,0.1078,0.1148,0.1152,0.1116,0.1163,0.1171,0.1185,0.1213,0.1218,0.1212,0.1213,0.1243,0.1245,0.1247,0.1294,0.1256,0.1257,0.1257,0.1328,0.1329,0.1331,0,0,0,0,0,0,0.1065,0.1073,0.1145,0.1116,0.1126,0.1164,0.118,0.1186,0.1207,0.1221,0.1225,0.1227,0.1243,0.1245,0.1275,0.1293,0.1257,0.1258,0.1326,0.1328,0.133,0.1359,0,0,0,0,0,0,0.1062,0.1072,0.108,0.1116,0.1128,0.1172,0.118,0.1187,0.1212,0.1215,0.1236,0.1238,0.1243,0.1274,0.1276,0.1293,0.1258,0.1324,0.1327,0.1329,0.1356,0.1362,0.1366,0,0,0,0,0,0.1058,0.1071,0.108,0.1089,0.1138,0.1172,0.1179,0.1205,0.1212,0.1224,0.1249,0.1238,0.1293,0.1276,0.1278,0.1296,0.1323,0.1326,0.1329,0.1354,0.1361,0.1366,0,0,0,0,0,0,0.1037,0.1077,0.1088,0.1113,0.1142,0.1178,0.1194,0.1209,0.1238,0.1243,0.1254,0.1259,0.1291,0.1293,0.1274,0.1327,0.1306,0.131,0.1324,0.1331,0.1336,0.1335,0.1259,0,0,0,0,0,0.1035,0.1057,0.1092,0.1114,0.1128,0.116,0.1178,0.1197,0.1227,0.124,0.1257,0.128,0.1305,0.1317,0.1335,0.136,0.1377,0.1375,0.138,0.1384,0.1386,0.1429,0.1438,0.1341,0.1341,0.1341,0,0,0.1033,0.1059,0.1071,0.1111,0.1135,0.1165,0.1172,0.1203,0.1231,0.1237,0.1278,0.1295,0.1316,0.1352,0.1366,0.1355,0.1426,0.1388,0.1392,0.1392,0.1434,0.1443,0.1451,0.1344,0.1343,0.1343,0,0,0.1046,0.1063,0.1087,0.1111,0.115,0.1171,0.118,0.1221,0.1242,0.1281,0.1298,0.1329,0.1361,0.1386,0.1401,0.1444,0.1451,0.1451,0.1476,0.1517,0.1525,0.1533,0.1584,0.1595,0.1454,0.1454,0.1454,0,0.1044,0.1081,0.1099,0.1129,0.1152,0.1174,0.1206,0.1231,0.1277,0.13,0.1297,0.1368,0.1378,0.1432,0.1451,0.1454,0.1485,0.1447,0.1523,0.1531,0.1538,0.1588,0.16,0.1456,0.1456,0.1456,0.1455,0,0.1079,0.1105,0.1122,0.1168,0.1191,0.1222,0.1255,0.1283,0.1306,0.1332,0.1386,0.141,0.1456,0.1463,0.147,0.1529,0.1539,0.1523,0.1504,0.1549,0.16,0.1612,0.1459,0.1458,0.1457,0.1457,0,0,0.1094,0.1138,0.1146,0.1171,0.1216,0.1242,0.1282,0.1332,0.1365,0.14,0.1451,0.1492,0.1508,0.1527,0.1542,0.1571,0.1647,0.1571,0.1572,0.1615,0.1757,0.1749,0.1761,0.1648,0.1649,0.1651,0.1779,0,0.1124,0.1177,0.1192,0.1244,0.1277,0.1301,0.1336,0.1377,0.141,0.1459,0.1491,0.1539,0.1533,0.1561,0.1594,0.1636,0.1678,0.1614,0.1712,0.1715,0.1697,0.1774,0.149,0.1579,0.1791,0.1793,0.1795,0,0.1166,0.1195,0.1245,0.129,0.1306,0.1335,0.1396,0.1429,0.1488,0.1514,0.1565,0.1592,0.1662,0.1634,0.174,0.1704,0.1738,0.1757,0.1763,0.175,0.1729,0.1566,0.1594,0.1815,0.1813,0.1812,0.1811,0,0.1186,0.1238,0.1277,0.1295,0.1344,0.1371,0.1399,0.1451,0.1492,0.1556,0.1603,0.1667,0.1729,0.177,0.1834,0.1795,0.1941,0.1891,0.1917,0.1917,0.1691,0.1669,0.196,0.196,0.196,0.1959,0.1959,0,0.1221,0.1256,0.1289,0.1313,0.1361,0.1388,0.1443,0.1475,0.1539,0.1593,0.1641,0.1704,0.1766,0.1856,0.1876,0.1961,0.199,0.1944,0.1956,0.1697,0.1675,0.1879,0.1868,0.1964,0.1963,0.1962,0.1961,0,0.1244,0.1265,0.1311,0.1357,0.1373,0.1408,0.147,0.1508,0.1569,0.1647,0.1678,0.1776,0.1893,0.1966,0.2054,0.2038,0.2093,0.2109,0.1816,0.179,0.2025,0.2014,0.2142,0.2143,0.2144,0.2145,0.2145,0,0.1264,0.129,0.1336,0.1357,0.1379,0.1429,0.1461,0.1518,0.1558,0.1683,0.1723,0.1869,0.1944,0.2097,0.2056,0.2108,0.2182,0.1911,0.1776,0.2049,0.2047,0.2035,0.2023,0.1491,0.1486,0.1482,0.1479,0,0.1296,0.1307,0.1332,0.1371,0.1405,0.1442,0.1491,0.1523,0.1592,0.1664,0.1758,0.1828,0.1941,0.1868,0.195,0.1916,0.1874,0.1836,0.22,0.1501,0.1449,0.1443,0.145,0.1444,0.1447,0.145,0.1452,0.1453,0.1309,0.1324,0.1344,0.1377,0.1412,0.1432,0.1443,0.149,0.1539,0.1598,0.17,0.1703,0.1683,0.1648,0.1657,0.1624,0.1726,0.1608,0.1614,0.1625,0.1539,0.1492,0.148,0.1484,0.1487,0.149,0.1492,0,0.1312,0.1324,0.1351,0.1368,0.138,0.1416,0.1444,0.1425,0.1444,0.1465,0.1524,0.1318,0.1287,0.1333,0.1198,0.1222,0.1133,0.121,0.105,0.1082,0.1111,0.0995,0.0794,0.0794,0.0793,0.0793,0,0,0.1312,0.1315,0.1317,0.1318,0.134,0.1335,0.1338,0.1308,0.1274,0.1185,0.1111,0.1175,0.1179,0.0951,0.0932,0.0866,0.0968,0.0813,0.1338,0.1172,0.1202,0.1277,0.1127,0,0,0,0,0]},{"header":{"parameterUnit":"m.s-1","parameterCategory":2,"la1":30.2991,"la2":30.254,"lo1":-89.0895,"lo2":-89.0444,"dy":0.0017,"dx":0.0017,"nx":28,"ny":28,"refTime":"2023-11-06T09:00:00:Z","depth":"2","parameterNumber":3,"parameterNumberName":"V-component_of_CURRENTS"},"data":[0,0,0,0,0,0,0,0,0,0,0,0,0,0,0,0,0,0,0,0,0,0,0,0,0,0,0,0,0,0,0,0,0,0,0,0,0,0,0,0,0,0,0,0,0,0,0,0,0,0,0,0,0,0,0,0,0,0,-0.0391,-0.0392,0,-0.0434,-0.0434,-0.0435,-0.0458,-0.0458,-0.0458,-0.0458,-0.0526,-0.0527,-0.0529,0,0,0,0,0,0,0,0,0,0,0,0,0,-0.0342,-0.0343,-0.0391,-0.0392,-0.0392,-0.0434,-0.0434,-0.0435,-0.0458,-0.0458,-0.0458,-0.0458,-0.0525,-0.0527,-0.0529,0,0,0,0,0,0,0,0,0,0,0,0,0,-0.0372,-0.0343,-0.0391,-0.0408,-0.041,-0.0434,-0.0435,-0.0435,-0.0458,-0.0458,-0.0458,-0.0458,-0.0524,-0.0527,-0.053,-0.0546,0,0,-0.0538,-0.0539,0,0,0,0,0,0,0,0,-0.037,-0.0374,-0.0405,-0.0407,-0.0409,-0.044,-0.0442,-0.0473,-0.0458,-0.044,-0.0458,-0.0458,-0.0499,-0.0504,-0.0512,-0.0549,-0.0552,-0.0538,-0.054,-0.0541,-0.0542,0,0,0,0,0,0,0,-0.0368,-0.0372,-0.0408,-0.0406,-0.0408,-0.0418,-0.0422,-0.0448,-0.047,-0.0441,-0.0443,-0.0447,-0.0501,-0.0509,-0.0514,-0.0553,-0.0538,-0.054,-0.0542,-0.0543,-0.0618,-0.0618,0,0,0,0,0,0,-0.0362,-0.037,-0.0407,-0.041,-0.0389,-0.0419,-0.0424,-0.0431,-0.0469,-0.0474,-0.0447,-0.0448,-0.0505,-0.0511,-0.0516,-0.0535,-0.0541,-0.0543,-0.0545,-0.0617,-0.0618,-0.0618,0,0,0,0,0,0,-0.0361,-0.0365,-0.0405,-0.039,-0.0396,-0.042,-0.0427,-0.0431,-0.0439,-0.0473,-0.0479,-0.0451,-0.0505,-0.0513,-0.0541,-0.0538,-0.0545,-0.0547,-0.0617,-0.0617,-0.0618,-0.0574,0,0,0,0,0,0,-0.0359,-0.0364,-0.0368,-0.039,-0.0397,-0.0415,-0.0427,-0.0432,-0.0442,-0.0443,-0.0478,-0.0484,-0.0506,-0.0536,-0.0543,-0.0541,-0.0549,-0.0616,-0.0617,-0.0618,-0.0575,-0.0572,-0.0571,0,0,0,0,0,-0.0357,-0.0356,-0.0368,-0.0373,-0.0401,-0.0415,-0.0419,-0.0436,-0.0442,-0.0443,-0.047,-0.0483,-0.0546,-0.0539,-0.0547,-0.0546,-0.0616,-0.0617,-0.0618,-0.0575,-0.0573,-0.0571,0,0,0,0,0,0,-0.0332,-0.0359,-0.0373,-0.038,-0.0396,-0.0418,-0.0421,-0.0433,-0.0455,-0.0456,-0.0489,-0.0497,-0.052,-0.0543,-0.0534,-0.0571,-0.0583,-0.0585,-0.0548,-0.0546,-0.0544,-0.0509,-0.0551,0,0,0,0,0,-0.033,-0.0339,-0.0365,-0.0369,-0.0377,-0.0399,-0.0407,-0.0418,-0.0439,-0.0448,-0.0472,-0.0502,-0.0531,-0.0545,-0.0572,-0.0592,-0.0605,-0.0598,-0.0596,-0.0594,-0.0572,-0.0606,-0.0605,-0.0621,-0.0621,-0.0621,0,0,-0.0318,-0.0337,-0.034,-0.0365,-0.0379,-0.0378,-0.0404,-0.0411,-0.041,-0.0453,-0.0461,-0.0495,-0.0535,-0.0557,-0.0569,-0.0574,-0.0597,-0.0595,-0.0593,-0.0571,-0.0607,-0.0605,-0.0604,-0.0621,-0.0621,-0.0621,0,0,-0.0289,-0.0318,-0.031,-0.0324,-0.0345,-0.0362,-0.0362,-0.0384,-0.0396,-0.0411,-0.0444,-0.0473,-0.0513,-0.0539,-0.0559,-0.0564,-0.0586,-0.0579,-0.0539,-0.0574,-0.0572,-0.0571,-0.0581,-0.0581,-0.0578,-0.0578,-0.0578,0,-0.027,-0.0271,-0.0309,-0.0304,-0.0307,-0.035,-0.0334,-0.0356,-0.0383,-0.0389,-0.0406,-0.0463,-0.0501,-0.0525,-0.0528,-0.0557,-0.0573,-0.0543,-0.0569,-0.0568,-0.0568,-0.0579,-0.0579,-0.0576,-0.0576,-0.0576,-0.0576,0,-0.0232,-0.0235,-0.0231,-0.0242,-0.0252,-0.0249,-0.0281,-0.0293,-0.0315,-0.0335,-0.0363,-0.0416,-0.0444,-0.0472,-0.0501,-0.0518,-0.0529,-0.0562,-0.0569,-0.0563,-0.0576,-0.0577,-0.0573,-0.0573,-0.0574,-0.0575,0,0,-0.0176,-0.0197,-0.0195,-0.019,-0.0219,-0.022,-0.0227,-0.0242,-0.0237,-0.028,-0.0274,-0.0339,-0.0367,-0.0391,-0.0439,-0.0471,-0.049,-0.0508,-0.0511,-0.0506,-0.0547,-0.0522,-0.0521,-0.0531,-0.0531,-0.0531,-0.0555,0,-0.0129,-0.0107,-0.0131,-0.0107,-0.0099,-0.0139,-0.0139,-0.0162,-0.019,-0.02,-0.0263,-0.0281,-0.0339,-0.0351,-0.0393,-0.0464,-0.0492,-0.0478,-0.0563,-0.0565,-0.0533,-0.0521,-0.0515,-0.0533,-0.0557,-0.0557,-0.0557,0,-0.0078,-0.0074,-0.0041,-0.0044,-0.0042,-0.0033,-0.0041,-0.0049,-0.0086,-0.0105,-0.0139,-0.0185,-0.0232,-0.0286,-0.0387,-0.0377,-0.0448,-0.0506,-0.051,-0.0496,-0.0541,-0.0546,-0.0535,-0.056,-0.056,-0.0559,-0.0559,0,-0.0024,-0.001,0.0016,0.0016,0.0006,0.002,0.0013,-0.0013,-0.0012,-0.0041,-0.0033,-0.0107,-0.0129,-0.0232,-0.0344,-0.0369,-0.0449,-0.0506,-0.0546,-0.0545,-0.0558,-0.0557,-0.0569,-0.0569,-0.0569,-0.0569,-0.0569,0,0.0028,0.005,0.0046,0.0059,0.0097,0.0072,0.0103,0.0086,0.0076,0.0094,0.0023,0.0033,-0.0117,-0.0182,-0.0305,-0.0409,-0.0421,-0.0519,-0.0546,-0.0542,-0.054,-0.0581,-0.0582,-0.057,-0.057,-0.057,-0.057,0,0.0079,0.0075,0.0104,0.0112,0.0122,0.0145,0.0161,0.018,0.0167,0.0193,0.0193,0.0139,0.0066,-0.0074,-0.0228,-0.0338,-0.0458,-0.0495,-0.0461,-0.0484,-0.0542,-0.0541,-0.0544,-0.0544,-0.0543,-0.0542,-0.0542,0,0.0106,0.0127,0.0147,0.017,0.0178,0.0208,0.0231,0.0223,0.0246,0.0264,0.0286,0.0244,0.0229,0.0035,-0.0167,-0.0349,-0.0404,-0.0469,-0.0519,-0.0511,-0.0538,-0.0538,-0.0537,-0.0526,-0.0525,-0.0525,-0.0525,0,0.016,0.0163,0.0183,0.0225,0.0259,0.0296,0.0331,0.0365,0.0369,0.0416,0.0464,0.0464,0.0298,0.0115,-0.0125,-0.0255,-0.0441,-0.0464,-0.0473,-0.0522,-0.0493,-0.0519,-0.052,-0.052,-0.0521,-0.0521,-0.0521,-0.0522,0.0198,0.0221,0.0242,0.0285,0.0325,0.0381,0.0429,0.0481,0.055,0.0643,0.0616,0.0596,0.0342,0.0034,-0.015,-0.0359,-0.0376,-0.0492,-0.0495,-0.0497,-0.048,-0.045,-0.0465,-0.0465,-0.0465,-0.0466,-0.0466,0,0.024,0.0261,0.0303,0.0353,0.0408,0.0418,0.0496,0.0562,0.0675,0.0714,0.0788,0.0524,0.0333,0.0061,-0.0243,-0.0417,-0.0439,-0.047,-0.049,-0.0493,-0.0496,-0.048,-0.0465,-0.0465,-0.0466,-0.0466,0,0,0.0265,0.0302,0.0321,0.0415,0.046,0.0547,0.0602,0.0714,0.074,0.0792,0.0738,0.0706,0.0304,0.007,-0.0159,-0.0316,-0.0355,-0.0331,-0.0319,-0.0318,-0.0318,-0.0502,-0.0478,0,0,0,0,0]}],[{"header":{"parameterUnit":"m.s-1","parameterCategory":2,"la1":30.2991,"la2":30.254,"lo1":-89.0895,"lo2":-89.0444,"dy":0.0017,"dx":0.0017,"nx":28,"ny":28,"refTime":"2023-11-06T09:00:00:Z","depth":"4","parameterNumber":2,"parameterNumberName":"U-component_of_CURRENTS"},"data":[0,0,0,0,0,0,0,0,0,0,0,0,0,0,0,0,0,0,0,0,0,0,0,0,0,0,0,0,0,0,0,0,0,0,0,0,0,0,0,0,0,0,0,0,0,0,0,0,0,0,0,0,0,0,0,0,0,0,0.0345,0.0346,0,0.039,0.039,0.0391,0.0424,0.0425,0.0426,0.0427,0.043,0.0429,0.0429,0,0,0,0,0,0,0,0,0,0,0,0,0,0.0272,0.0273,0.0345,0.0346,0.0347,0.039,0.039,0.0391,0.0424,0.0425,0.0426,0.0427,0.043,0.0429,0.0428,0,0,0,0,0,0,0,0,0,0,0,0,0,0.0304,0.0273,0.0345,0.0373,0.0376,0.039,0.039,0.0391,0.0424,0.0425,0.0426,0.0427,0.043,0.0429,0.0428,0.04,0,0,0.0426,0.0425,0,0,0,0,0,0,0,0,0.0303,0.0307,0.0368,0.0371,0.0375,0.0407,0.0366,0.0393,0.0424,0.0401,0.0427,0.0428,0.0421,0.0421,0.042,0.04,0.04,0.0425,0.0425,0.0425,0.0424,0,0,0,0,0,0,0,0.03,0.0305,0.0358,0.0369,0.0373,0.0378,0.0383,0.0371,0.0399,0.0403,0.0407,0.0419,0.0422,0.0421,0.0421,0.04,0.0426,0.0425,0.0424,0.0424,0.0412,0.0412,0,0,0,0,0,0,0.0304,0.0303,0.0357,0.036,0.0346,0.0379,0.0384,0.0392,0.04,0.0405,0.0418,0.0421,0.0422,0.0422,0.0421,0.0444,0.0425,0.0424,0.0423,0.0412,0.0412,0.0412,0,0,0,0,0,0,0.0302,0.0308,0.0355,0.0337,0.0344,0.0379,0.0387,0.0392,0.042,0.0413,0.0416,0.0445,0.0423,0.0422,0.0428,0.0442,0.0423,0.0422,0.0412,0.0412,0.0412,0.0454,0,0,0,0,0,0,0.03,0.0307,0.0329,0.0337,0.0345,0.0384,0.0386,0.0392,0.0427,0.0431,0.0436,0.0437,0.0424,0.0429,0.0427,0.044,0.0422,0.0411,0.0412,0.0412,0.0452,0.0455,0.0458,0,0,0,0,0,0.0297,0.0313,0.033,0.0338,0.0369,0.0385,0.039,0.0415,0.0428,0.0443,0.0443,0.0438,0.0431,0.0429,0.0426,0.0439,0.0411,0.0412,0.0412,0.045,0.0455,0.0458,0,0,0,0,0,0,0.0291,0.0319,0.0337,0.0362,0.0386,0.0394,0.0419,0.0429,0.0441,0.0451,0.0439,0.0438,0.0444,0.0435,0.0434,0.0436,0.0421,0.0421,0.0451,0.0455,0.0458,0.0466,0.0421,0,0,0,0,0,0.0301,0.0328,0.0347,0.0375,0.0388,0.0408,0.0425,0.0439,0.0446,0.0455,0.0455,0.0451,0.0438,0.0444,0.043,0.0435,0.0427,0.0442,0.0445,0.0448,0.0452,0.0446,0.0449,0.0414,0.0414,0.0414,0,0,0.0309,0.0331,0.0347,0.0378,0.0399,0.0416,0.0421,0.0451,0.0465,0.045,0.0472,0.046,0.044,0.0441,0.0445,0.0442,0.0455,0.0449,0.0451,0.0454,0.0447,0.045,0.0453,0.0415,0.0415,0.0415,0,0,0.0327,0.0356,0.038,0.04,0.0439,0.0444,0.0459,0.0477,0.0491,0.0503,0.049,0.049,0.0484,0.0469,0.046,0.0472,0.0465,0.0474,0.0506,0.05,0.0503,0.0505,0.0507,0.051,0.0484,0.0484,0.0484,0,0.0344,0.0367,0.0391,0.0415,0.0435,0.0458,0.0477,0.0488,0.0507,0.0512,0.052,0.0504,0.0493,0.0482,0.0491,0.048,0.0481,0.0495,0.0505,0.0507,0.0509,0.051,0.0512,0.0486,0.0486,0.0486,0.0485,0,0.0361,0.0395,0.041,0.0447,0.0468,0.0491,0.0507,0.0526,0.0544,0.0549,0.0555,0.0538,0.0533,0.0528,0.0516,0.0522,0.0521,0.0504,0.0498,0.0515,0.0515,0.0517,0.0489,0.0488,0.0488,0.0487,0,0,0.0362,0.0414,0.0424,0.0446,0.0487,0.05,0.0525,0.0543,0.0559,0.0575,0.0586,0.0573,0.0578,0.0567,0.0553,0.0552,0.0569,0.0547,0.0545,0.0554,0.057,0.0544,0.0542,0.0561,0.0561,0.0561,0.0569,0,0.0375,0.0418,0.0438,0.0479,0.0499,0.0524,0.0542,0.0564,0.058,0.0596,0.0589,0.0596,0.0589,0.0596,0.0594,0.0568,0.0574,0.057,0.0548,0.0547,0.0525,0.0543,0.0562,0.057,0.057,0.057,0.057,0,0.0378,0.0409,0.0449,0.0493,0.0504,0.053,0.0562,0.0582,0.0604,0.0619,0.0632,0.0632,0.0637,0.0627,0.0613,0.0616,0.0605,0.0586,0.0586,0.0547,0.0523,0.0545,0.0573,0.0572,0.0572,0.0572,0.0572,0,0.0353,0.0411,0.0444,0.0461,0.0512,0.0535,0.0564,0.0594,0.0611,0.0645,0.0664,0.0664,0.0678,0.0658,0.0636,0.0635,0.0613,0.0599,0.0563,0.0562,0.0565,0.0562,0.0593,0.0593,0.0593,0.0592,0.0592,0,0.0343,0.037,0.0442,0.0459,0.0496,0.0537,0.0573,0.0599,0.0635,0.0654,0.0684,0.0676,0.0691,0.0678,0.0648,0.0612,0.0626,0.0574,0.0561,0.0583,0.0582,0.0567,0.0564,0.0593,0.0593,0.0593,0.0593,0,0.0304,0.0354,0.0392,0.0461,0.0487,0.0515,0.0584,0.0599,0.0652,0.0678,0.0697,0.0706,0.0683,0.068,0.0645,0.0633,0.059,0.0573,0.0608,0.0596,0.0545,0.0544,0.0544,0.0543,0.0542,0.0541,0.0541,0,0.0287,0.0305,0.0387,0.0416,0.0453,0.0509,0.0538,0.06,0.0617,0.0666,0.0661,0.0674,0.0671,0.0598,0.0591,0.0558,0.0545,0.0562,0.0549,0.0552,0.054,0.054,0.054,0.054,0.0539,0.0539,0.0539,0,0.0243,0.0279,0.0311,0.0377,0.0423,0.0462,0.0516,0.052,0.0584,0.0648,0.0622,0.0617,0.059,0.055,0.0552,0.0511,0.0573,0.0554,0.0555,0.0543,0.0547,0.0536,0.0537,0.0536,0.0537,0.0537,0.0537,0,0.0208,0.0219,0.0273,0.0328,0.0385,0.0404,0.0431,0.0458,0.0485,0.0561,0.0532,0.0531,0.0559,0.0521,0.0489,0.0488,0.048,0.0497,0.0501,0.0504,0.0489,0.0488,0.0452,0,0,0,0,0,0.0174,0.0185,0.0222,0.0275,0.0331,0.0369,0.0413,0.0436,0.0503,0.048,0.0519,0.0485,0.047,0.0439,0.0425,0.0455,0.0471,0.0441,0.049,0.0522,0.0525,0.051,0,0,0,0,0,0,0.0148,0.0175,0.0199,0.0233,0.0264,0.0308,0.0332,0.0365,0.0353,0.0424,0.0386,0.0489,0.0434,0.0468,0.0421,0.0426,0.0458,0.0461,0.0461,0.052,0.0523,0.0525,0.0511,0,0,0,0,0]},{"header":{"parameterUnit":"m.s-1","parameterCategory":2,"la1":30.2991,"la2":30.254,"lo1":-89.0895,"lo2":-89.0444,"dy":0.0017,"dx":0.0017,"nx":28,"ny":28,"refTime":"2023-11-06T09:00:00:Z","depth":"4","parameterNumber":3,"parameterNumberName":"V-component_of_CURRENTS"},"data":[0,0,0,0,0,0,0,0,0,0,0,0,0,0,0,0,0,0,0,0,0,0,0,0,0,0,0,0,0,0,0,0,0,0,0,0,0,0,0,0,0,0,0,0,0,0,0,0,0,0,0,0,0,0,0,0,0,0,0.0192,0.0192,0,0.0136,0.0135,0.0134,0.008,0.008,0.0079,0.0079,-0.0047,-0.005,-0.0053,0,0,0,0,0,0,0,0,0,0,0,0,0,0.0211,0.0211,0.0192,0.0191,0.0191,0.0136,0.0135,0.0134,0.008,0.008,0.0079,0.0079,-0.0046,-0.0049,-0.0053,0,0,0,0,0,0,0,0,0,0,0,0,0,0.018,0.0211,0.0192,0.016,0.0157,0.0137,0.0135,0.0134,0.008,0.008,0.0079,0.0079,-0.0045,-0.0049,-0.0053,-0.007,0,0,-0.0067,-0.0069,0,0,0,0,0,0,0,0,0.0182,0.0179,0.0165,0.0163,0.0159,0.0118,0.0096,0.0063,0.0081,0.0106,0.0079,0.0079,0.0005,-0.0004,-0.0018,-0.0076,-0.0082,-0.0068,-0.007,-0.0072,-0.0074,0,0,0,0,0,0,0,0.0184,0.0181,0.0166,0.0165,0.0161,0.0136,0.013,0.0089,0.0055,0.0103,0.01,0.01,0.0002,-0.0013,-0.0021,-0.0084,-0.0068,-0.0072,-0.0074,-0.0076,-0.0209,-0.021,0,0,0,0,0,0,0.0202,0.0184,0.0168,0.0165,0.0174,0.0136,0.013,0.0129,0.0056,0.0047,0.0101,0.0098,-0.0005,-0.0016,-0.0026,-0.0094,-0.0072,-0.0077,-0.0079,-0.0208,-0.0209,-0.021,0,0,0,0,0,0,0.0202,0.0201,0.017,0.0176,0.0171,0.0137,0.0135,0.0128,0.0098,0.0056,0.0044,0.0077,-0.0006,-0.0019,-0.0079,-0.0097,-0.0079,-0.0083,-0.0207,-0.0208,-0.021,-0.0202,0,0,0,0,0,0,0.0203,0.0201,0.0203,0.0177,0.0171,0.0149,0.0136,0.0127,0.0102,0.0097,0.0032,0.0021,-0.0007,-0.0072,-0.0084,-0.0103,-0.0086,-0.0206,-0.0208,-0.0209,-0.0201,-0.0203,-0.0204,0,0,0,0,0,0.0204,0.0203,0.0203,0.0202,0.0176,0.0149,0.0142,0.0114,0.0101,0.0085,0.0039,0.0022,-0.009,-0.0077,-0.009,-0.0111,-0.0205,-0.0207,-0.0209,-0.0201,-0.0203,-0.0204,0,0,0,0,0,0,0.0205,0.0197,0.0197,0.0193,0.0172,0.0141,0.0127,0.0108,0.006,0.0049,0.0006,-0.0009,-0.0066,-0.009,-0.0075,-0.0153,-0.0149,-0.0153,-0.0138,-0.014,-0.0141,-0.0133,-0.009,0,0,0,0,0,0.0212,0.0212,0.0196,0.0191,0.0183,0.0154,0.0139,0.0117,0.0077,0.0055,0.0011,-0.0037,-0.008,-0.0111,-0.0152,-0.02,-0.0207,-0.022,-0.0222,-0.0223,-0.0225,-0.0247,-0.025,-0.0216,-0.0216,-0.0216,0,0,0.0212,0.0209,0.0208,0.0193,0.0175,0.0154,0.0141,0.0112,0.0087,0.0049,-0.0008,-0.0046,-0.0094,-0.0145,-0.0173,-0.0172,-0.0235,-0.0225,-0.0226,-0.0228,-0.0249,-0.0252,-0.0255,-0.0217,-0.0217,-0.0217,0,0,0.0205,0.0208,0.0201,0.0187,0.0164,0.0147,0.0137,0.0097,0.007,0.0019,-0.0014,-0.0061,-0.0133,-0.0167,-0.0192,-0.0227,-0.024,-0.0244,-0.0251,-0.0272,-0.0274,-0.0277,-0.028,-0.0283,-0.0247,-0.0247,-0.0247,0,0.0205,0.0197,0.0192,0.0177,0.0165,0.0143,0.0121,0.0094,0.0036,0.0011,-0.0001,-0.0102,-0.014,-0.0198,-0.0212,-0.023,-0.024,-0.0239,-0.0272,-0.0275,-0.0277,-0.0281,-0.0284,-0.0247,-0.0247,-0.0247,-0.0247,0,0.0186,0.0181,0.0172,0.0154,0.0137,0.0115,0.0088,0.0058,0.0027,-0.0003,-0.0068,-0.0118,-0.0177,-0.0196,-0.0219,-0.0263,-0.0262,-0.0267,-0.0263,-0.028,-0.0283,-0.0286,-0.0247,-0.0247,-0.0247,-0.0247,0,0,0.018,0.0165,0.0161,0.0154,0.0123,0.0108,0.0072,0.0033,0.0007,-0.0048,-0.0089,-0.016,-0.0185,-0.0215,-0.0248,-0.0271,-0.0294,-0.0281,-0.0282,-0.0275,-0.0331,-0.0308,-0.031,-0.0307,-0.0308,-0.0309,-0.0322,0,0.0163,0.0146,0.0135,0.0111,0.01,0.0077,0.005,0.0012,-0.0025,-0.007,-0.0118,-0.0169,-0.0192,-0.0221,-0.025,-0.0288,-0.0305,-0.0289,-0.0324,-0.0324,-0.0295,-0.0314,-0.0312,-0.0324,-0.0325,-0.0326,-0.0326,0,0.0141,0.0137,0.0118,0.0101,0.0092,0.0071,0.0032,0.0003,-0.0053,-0.0082,-0.0136,-0.0174,-0.0229,-0.0236,-0.03,-0.0292,-0.0312,-0.0331,-0.0332,-0.0317,-0.0308,-0.0308,-0.0332,-0.0332,-0.0331,-0.0331,-0.033,0,0.0142,0.0121,0.0112,0.0104,0.008,0.0061,0.004,-0.0008,-0.0026,-0.0091,-0.0107,-0.0183,-0.0213,-0.0259,-0.03,-0.0307,-0.0353,-0.0363,-0.0357,-0.0355,-0.0373,-0.0371,-0.0397,-0.0397,-0.0397,-0.0397,-0.0397,0,0.013,0.0119,0.0113,0.0107,0.0091,0.0066,0.0039,0.0007,-0.0031,-0.0046,-0.0112,-0.0136,-0.022,-0.0257,-0.0298,-0.0333,-0.0349,-0.0361,-0.0362,-0.0369,-0.0366,-0.0375,-0.0372,-0.0397,-0.0397,-0.0397,-0.0397,0,0.0125,0.0122,0.0114,0.0098,0.0092,0.0077,0.0056,0.004,0.0004,-0.0016,-0.0031,-0.0104,-0.0157,-0.0218,-0.0289,-0.0318,-0.0359,-0.0362,-0.0351,-0.035,-0.0349,-0.0346,-0.037,-0.037,-0.0369,-0.0369,-0.0369,0,0.0118,0.0116,0.0116,0.0117,0.0107,0.0092,0.0085,0.0055,0.0052,0.0011,0.001,-0.0053,-0.01,-0.0181,-0.0254,-0.0325,-0.0332,-0.035,-0.0371,-0.035,-0.0349,-0.0346,-0.0344,-0.0368,-0.0368,-0.0367,-0.0367,0,0.0106,0.0111,0.0111,0.0124,0.0121,0.0123,0.0116,0.0117,0.0094,0.0078,0.0041,-0.0023,-0.0079,-0.017,-0.0218,-0.0271,-0.0345,-0.0346,-0.0348,-0.0367,-0.0347,-0.0346,-0.0344,-0.0366,-0.0366,-0.0366,-0.0366,0,0.0098,0.0101,0.0114,0.012,0.0132,0.014,0.0134,0.0131,0.0124,0.0093,0.0084,0.0002,-0.0048,-0.014,-0.0186,-0.0237,-0.0259,-0.0281,-0.0287,-0.0289,-0.0266,-0.0229,-0.0215,0,0,0,0,0,0.0086,0.0093,0.0107,0.0119,0.014,0.0144,0.0153,0.015,0.0145,0.013,0.0107,0.0056,-0.0045,-0.0102,-0.0148,-0.0182,-0.0268,-0.0238,-0.0296,-0.0356,-0.0358,-0.0343,0,0,0,0,0,0,0.0075,0.0089,0.0103,0.0124,0.0135,0.0153,0.0155,0.0151,0.0144,0.0129,0.0075,0.0052,-0.0047,-0.0012,-0.0146,-0.0164,-0.0206,-0.0284,-0.0285,-0.0355,-0.0357,-0.0358,-0.0344,0,0,0,0,0]}]]